Torna al catalogo

BEIDOU 8

AttivoNavigazioneGEO
NORAD 37384·PAYLOAD·🇨🇳 China

Lanciato Apr 9, 2011 da Xichang Satellite Launch Center

Loading…

TLE

AggiornatoSource: Space-Track

Epoca: Sep 11, 2026, 17:17 UTC

1 37384U 11013A   26254.72041400 -.00000177  00000-0  00000-0 0  9994
2 37384  62.5388  39.3441 0034682 183.6392 132.9930  1.00292639 56525

Traccia BEIDOU 8 in tempo reale con AllMySat

Download on the App Store